| time (UTC) | temp F | wind direction | speed MPH | gust MPH | rain 1hr in | rain 24hr in | rain mn in | humidity % | barometer mb |
| 20260506001532 | 44 | 320 | 2.0 | 6.0 | 0.00 | 0.00 | 0.00 | 48 | 1008.8 |
| 20260506001015 | 44 | 292 | 2.0 | 8.0 | 0.00 | 0.00 | 0.00 | 48 | 1008.7 |
| 20260506000516 | 44 | 321 | 2.0 | 8.0 | 0.00 | 0.00 | 0.00 | 47 | 1008.8 |
| 20260506000032 | 44 | 299 | 3.0 | 8.0 | 0.00 | 0.00 | 0.00 | 46 | 1008.7 |
| 20260505235511 | 45 | 5 | 2.0 | 6.0 | 0.00 | 0.00 | 0.00 | 46 | 1008.6 |
| 20260505235015 | 45 | 347 | 2.0 | 8.0 | 0.00 | 0.00 | 0.00 | 46 | 1008.6 |
| 20260505234534 | 45 | 304 | 3.0 | 8.0 | 0.00 | 0.00 | 0.00 | 46 | 1008.6 |
| 20260505234017 | 45 | 313 | 3.0 | 8.0 | 0.00 | 0.00 | 0.00 | 44 | 1008.6 |
| 20260505233514 | 46 | 298 | 3.0 | 8.0 | 0.00 | 0.00 | 0.00 | 44 | 1008.3 |
| 20260505233034 | 46 | 284 | 1.0 | 8.0 | 0.00 | 0.00 | 0.00 | 46 | 1008.4 |
| 20260505232517 | 46 | 296 | 2.0 | 8.0 | 0.00 | 0.00 | 0.00 | 46 | 1008.3 |
| 20260505232013 | 46 | 298 | 3.0 | 8.0 | 0.00 | 0.00 | 0.00 | 44 | 1008.3 |
| 20260505231549 | 46 | 304 | 2.0 | 11.0 | 0.00 | 0.00 | 0.00 | 44 | 1008.1 |
| 20260505231014 | 46 | 306 | 2.0 | 11.0 | 0.00 | 0.00 | 0.00 | 46 | 1008.1 |
| 20260505230515 | 46 | 311 | 2.0 | 8.0 | 0.00 | 0.00 | 0.00 | 44 | 1008.2 |
| 20260505230034 | 47 | 327 | 3.0 | 7.0 | 0.00 | 0.00 | 0.00 | 44 | 1008.2 |
| 20260505225513 | 46 | 320 | 2.0 | 12.0 | 0.00 | 0.00 | 0.00 | 45 | 1008.1 |
| 20260505225013 | 46 | 303 | 3.0 | 12.0 | 0.00 | 0.00 | 0.00 | 44 | 1008.1 |
| 20260505224534 | 46 | 328 | 2.0 | 9.0 | 0.00 | 0.00 | 0.00 | 44 | 1008.1 |
| 20260505224013 | 47 | 288 | 2.0 | 9.0 | 0.00 | 0.00 | 0.00 | 44 | 1008.2 |
| 20260505223513 | 47 | 319 | 2.0 | 7.0 | 0.00 | 0.00 | 0.00 | 45 | 1008.1 |
| 20260505223035 | 46 | 308 | 1.0 | 9.0 | 0.00 | 0.00 | 0.00 | 44 | 1007.9 |
| 20260505222513 | 47 | 331 | 5.0 | 9.0 | 0.00 | 0.00 | 0.00 | 44 | 1008.0 |
| 20260505222018 | 46 | 293 | 1.0 | 7.0 | 0.00 | 0.00 | 0.00 | 45 | 1007.9 |
| 20260505221534 | 46 | 322 | 1.0 | 12.0 | 0.00 | 0.00 | 0.00 | 45 | 1008.0 |
| 20260505221014 | 47 | 31 | 6.0 | 12.0 | 0.00 | 0.00 | 0.00 | 44 | 1007.9 |
| 20260505220512 | 47 | 309 | 3.0 | 9.0 | 0.00 | 0.00 | 0.00 | 45 | 1008.0 |
| 20260505220048 | 47 | 302 | 3.0 | 9.0 | 0.00 | 0.00 | 0.00 | 44 | 1007.8 |
| 20260505215516 | 47 | 299 | 4.0 | 9.0 | 0.00 | 0.00 | 0.00 | 44 | 1007.7 |
| 20260505215011 | 47 | 301 | 3.0 | 10.0 | 0.00 | 0.00 | 0.00 | 45 | 1007.6 |
| 20260505214533 | 47 | 290 | 4.0 | 10.0 | 0.00 | 0.00 | 0.00 | 44 | 1007.8 |
| 20260505214013 | 47 | 290 | 3.0 | 9.0 | 0.00 | 0.00 | 0.00 | 44 | 1007.8 |
| 20260505213514 | 48 | 325 | 4.0 | 9.0 | 0.00 | 0.00 | 0.00 | 44 | 1007.8 |
| 20260505213038 | 47 | 298 | 2.0 | 7.0 | 0.00 | 0.00 | 0.00 | 46 | 1007.7 |
| 20260505212512 | 47 | 326 | 2.0 | 8.0 | 0.00 | 0.00 | 0.00 | 44 | 1007.6 |
| 20260505212014 | 47 | 310 | 3.0 | 8.0 | 0.00 | 0.00 | 0.00 | 45 | 1007.9 |
| 20260505211539 | 47 | 348 | 3.0 | 7.0 | 0.00 | 0.00 | 0.00 | 44 | 1007.5 |
| 20260505211015 | 47 | 272 | 3.0 | 8.0 | 0.00 | 0.00 | 0.00 | 45 | 1007.9 |
| 20260505210511 | 47 | 286 | 4.0 | 9.0 | 0.00 | 0.00 | 0.00 | 43 | 1007.9 |
| 20260505210039 | 47 | 275 | 4.0 | 9.0 | 0.00 | 0.00 | 0.00 | 44 | 1007.8 |
| 20260505205516 | 47 | 240 | 2.0 | 11.0 | 0.00 | 0.00 | 0.00 | 45 | 1007.8 |
| 20260505205014 | 47 | 344 | 5.0 | 11.0 | 0.00 | 0.00 | 0.00 | 43 | 1007.7 |
| 20260505204531 | 47 | 302 | 2.0 | 7.0 | 0.00 | 0.00 | 0.00 | 43 | 1007.8 |
| 20260505204011 | 47 | 288 | 2.0 | 7.0 | 0.00 | 0.00 | 0.00 | 43 | 1007.8 |
| 20260505203514 | 48 | 339 | 2.0 | 8.0 | 0.00 | 0.00 | 0.00 | 43 | 1007.8 |
| 20260505203033 | 48 | 295 | 3.0 | 8.0 | 0.00 | 0.00 | 0.00 | 43 | 1007.9 |
| 20260505202512 | 48 | 344 | 3.0 | 11.0 | 0.00 | 0.00 | 0.00 | 43 | 1007.6 |
| 20260505202014 | 48 | 306 | 5.0 | 11.0 | 0.00 | 0.00 | 0.00 | 42 | 1007.8 |
| 20260505201530 | 47 | 304 | 4.0 | 9.0 | 0.00 | 0.00 | 0.00 | 45 | 1007.8 |
| 20260505201014 | 47 | 294 | 2.0 | 9.0 | 0.00 | 0.00 | 0.00 | 44 | 1007.8 |
| 20260505200513 | 47 | 320 | 3.0 | 12.0 | 0.00 | 0.00 | 0.00 | 44 | 1007.6 |
| 20260505200030 | 47 | 327 | 8.0 | 12.0 | 0.00 | 0.00 | 0.00 | 45 | 1007.8 |
| 20260505195513 | 47 | 326 | 3.0 | 9.0 | 0.00 | 0.00 | 0.00 | 43 | 1007.8 |
| 20260505195012 | 47 | 295 | 3.0 | 7.0 | 0.00 | 0.00 | 0.00 | 44 | 1007.8 |
| 20260505194532 | 47 | 24 | 1.0 | 10.0 | 0.00 | 0.00 | 0.00 | 48 | 1007.8 |
| 20260505194020 | 47 | 271 | 3.0 | 12.0 | 0.00 | 0.00 | 0.00 | 46 | 1007.9 |
| 20260505193511 | 47 | 277 | 6.0 | 12.0 | 0.00 | 0.00 | 0.00 | 46 | 1007.8 |
| 20260505193040 | 47 | 307 | 4.0 | 8.0 | 0.00 | 0.00 | 0.00 | 44 | 1007.9 |
| 20260505192514 | 47 | 315 | 2.0 | 9.0 | 0.00 | 0.00 | 0.00 | 47 | 1007.8 |
| 20260505192015 | 46 | 293 | 2.0 | 9.0 | 0.00 | 0.00 | 0.00 | 46 | 1007.9 |
| 20260505191534 | 46 | 302 | 3.0 | 10.0 | 0.00 | 0.00 | 0.00 | 46 | 1008.0 |
| 20260505191013 | 46 | 284 | 5.0 | 10.0 | 0.00 | 0.00 | 0.00 | 46 | 1008.0 |
| 20260505190517 | 46 | 274 | 4.0 | 9.0 | 0.00 | 0.00 | 0.00 | 47 | 1008.0 |
| 20260505190032 | 46 | 327 | 3.0 | 8.0 | 0.00 | 0.00 | 0.00 | 47 | 1007.9 |
| 20260505185513 | 46 | 340 | 3.0 | 8.0 | 0.00 | 0.00 | 0.00 | 45 | 1007.9 |
| 20260505185017 | 46 | 9 | 3.0 | 8.0 | 0.00 | 0.00 | 0.00 | 45 | 1007.8 |
| 20260505184532 | 46 | 289 | 3.0 | 5.0 | 0.00 | 0.00 | 0.00 | 45 | 1007.8 |
| 20260505184013 | 46 | 352 | 2.0 | 8.0 | 0.00 | 0.00 | 0.00 | 46 | 1007.8 |
| 20260505183512 | 45 | 355 | 3.0 | 8.0 | 0.00 | 0.00 | 0.00 | 45 | 1007.9 |
| 20260505183043 | 45 | 289 | 3.0 | 10.0 | 0.00 | 0.00 | 0.00 | 45 | 1007.9 |
| 20260505182513 | 45 | 345 | 5.0 | 10.0 | 0.00 | 0.00 | 0.00 | 45 | 1008.0 |
| 20260505182015 | 45 | 315 | 5.0 | 9.0 | 0.00 | 0.00 | 0.00 | 47 | 1007.9 |
| 20260505181532 | 45 | 350 | 2.0 | 8.0 | 0.00 | 0.00 | 0.00 | 45 | 1007.9 |
| 20260505181018 | 45 | 341 | 3.0 | 8.0 | 0.00 | 0.00 | 0.00 | 45 | 1007.7 |
| 20260505180514 | 45 | 347 | 1.0 | 7.0 | 0.00 | 0.00 | 0.00 | 46 | 1007.9 |
| 20260505180033 | 45 | 295 | 3.0 | 7.0 | 0.00 | 0.00 | 0.00 | 45 | 1007.7 |
| 20260505175514 | 45 | 296 | 2.0 | 11.0 | 0.00 | 0.00 | 0.00 | 46 | 1007.9 |
| 20260505175011 | 45 | 265 | 5.0 | 11.0 | 0.00 | 0.00 | 0.00 | 46 | 1007.7 |
| 20260505174533 | 45 | 274 | 4.0 | 10.0 | 0.00 | 0.00 | 0.00 | 48 | 1007.8 |
| 20260505174014 | 45 | 343 | 1.0 | 9.0 | 0.00 | 0.00 | 0.00 | 47 | 1007.7 |
| 20260505173514 | 45 | 331 | 3.0 | 9.0 | 0.00 | 0.00 | 0.00 | 46 | 1007.9 |
| 20260505173032 | 45 | 293 | 2.0 | 7.0 | 0.00 | 0.00 | 0.00 | 46 | 1007.8 |
| 20260505172516 | 45 | 314 | 3.0 | 7.0 | 0.00 | 0.00 | 0.00 | 46 | 1007.7 |
| 20260505172014 | 46 | 246 | 2.0 | 4.0 | 0.00 | 0.00 | 0.00 | 46 | 1007.8 |
| 20260505171533 | 46 | 297 | 1.0 | 8.0 | 0.00 | 0.00 | 0.00 | 46 | 1007.5 |
| 20260505171018 | 45 | 269 | 3.0 | 8.0 | 0.00 | 0.00 | 0.00 | 47 | 1007.7 |
| 20260505170514 | 45 | 328 | 3.0 | 7.0 | 0.00 | 0.00 | 0.00 | 46 | 1007.8 |
| 20260505170032 | 45 | 291 | 3.0 | 8.0 | 0.00 | 0.00 | 0.00 | 46 | 1007.8 |
| 20260505165515 | 45 | 284 | 3.0 | 10.0 | 0.00 | 0.00 | 0.00 | 45 | 1007.8 |
| 20260505165014 | 45 | 298 | 5.0 | 10.0 | 0.00 | 0.00 | 0.00 | 45 | 1007.6 |
| 20260505164551 | 46 | 292 | 1.0 | 8.0 | 0.00 | 0.00 | 0.00 | 46 | 1007.4 |
| 20260505164016 | 46 | 323 | 3.0 | 8.0 | 0.00 | 0.00 | 0.00 | 46 | 1007.5 |
| 20260505163516 | 46 | 298 | 2.0 | 8.0 | 0.00 | 0.00 | 0.00 | 44 | 1007.5 |
| 20260505163036 | 46 | 287 | 3.0 | 9.0 | 0.00 | 0.00 | 0.00 | 46 | 1007.5 |
| 20260505162515 | 45 | 275 | 4.0 | 9.0 | 0.00 | 0.00 | 0.00 | 47 | 1007.6 |
| 20260505162014 | 45 | 294 | 1.0 | 9.0 | 0.00 | 0.00 | 0.00 | 47 | 1007.5 |
| 20260505161542 | 45 | 340 | 4.0 | 9.0 | 0.00 | 0.00 | 0.00 | 46 | 1007.7 |
| 20260505161016 | 46 | 302 | 2.0 | 8.0 | 0.00 | 0.00 | 0.00 | 47 | 1007.6 |
| 20260505160516 | 45 | 331 | 3.0 | 8.0 | 0.00 | 0.00 | 0.00 | 47 | 1007.6 |
| 20260505153032 | 45 | 324 | 3.0 | 8.0 | 0.00 | 0.00 | 0.00 | 51 | 1007.8 |
| 20260505152516 | 45 | 320 | 3.0 | 8.0 | 0.00 | 0.00 | 0.00 | 49 | 1007.5 |
| 20260505152015 | 45 | 306 | 1.0 | 6.0 | 0.00 | 0.00 | 0.00 | 52 | 1007.6 |
| 20260505151531 | 45 | 296 | 2.0 | 6.0 | 0.00 | 0.00 | 0.00 | 50 | 1007.7 |
| 20260505151015 | 45 | 31 | 0.0 | 9.0 | 0.00 | 0.00 | 0.00 | 52 | 1007.5 |
| 20260505150515 | 44 | 296 | 5.0 | 9.0 | 0.00 | 0.00 | 0.00 | 52 | 1007.7 |
| 20260505140518 | 42 | 281 | 3.0 | 7.0 | 0.00 | 0.00 | 0.00 | 54 | 1007.2 |
| 20260505125012 | 36 | 266 | 1.0 | 3.0 | 0.00 | 0.00 | 0.00 | 63 | 1006.7 |
| 20260505124539 | 36 | 294 | 1.0 | 4.0 | 0.00 | 0.00 | 0.00 | 63 | 1006.6 |
| 20260505124014 | 35 | 282 | 1.0 | 4.0 | 0.00 | 0.00 | 0.00 | 65 | 1006.6 |
| 20260505123513 | 35 | 282 | 1.0 | 4.0 | 0.00 | 0.00 | 0.00 | 64 | 1006.6 |
| 20260505123031 | 35 | 277 | 1.0 | 3.0 | 0.00 | 0.00 | 0.00 | 66 | 1006.4 |
| 20260505122512 | 35 | 266 | 1.0 | 3.0 | 0.00 | 0.00 | 0.00 | 67 | 1006.4 |
| 20260505122017 | 34 | 288 | 0.0 | 2.0 | 0.00 | 0.00 | 0.00 | 69 | 1006.2 |
| 20260505121535 | 34 | 288 | 0.0 | 2.0 | 0.00 | 0.00 | 0.00 | 69 | 1006.2 |
| 20260505121011 | 34 | 288 | 1.0 | 2.0 | 0.00 | 0.00 | 0.00 | 70 | 1006.1 |
| 20260505120513 | 34 | 288 | 1.0 | 2.0 | 0.00 | 0.00 | 0.00 | 72 | 1006.2 |
| 20260505120043 | 34 | 288 | 1.0 | 2.0 | 0.00 | 0.00 | 0.00 | 74 | 1006.1 |
| 20260505115513 | 34 | 288 | 0.0 | 2.0 | 0.00 | 0.00 | 0.00 | 71 | 1006.0 |
| 20260505115012 | 34 | 288 | 0.0 | 2.0 | 0.00 | 0.00 | 0.00 | 71 | 1005.9 |
| 20260505114530 | 34 | 288 | 0.0 | 2.0 | 0.00 | 0.00 | 0.00 | 72 | 1006.0 |
| 20260505114011 | 34 | 288 | 0.0 | 2.0 | 0.00 | 0.00 | 0.00 | 72 | 1005.8 |
| 20260505113511 | 34 | 0 | 0.0 | 2.0 | 0.00 | 0.00 | 0.00 | 73 | 1005.9 |
| 20260505113032 | 34 | 0 | 0.0 | 1.0 | 0.00 | 0.00 | 0.00 | 73 | 1005.7 |
| 20260505112513 | 34 | 0 | 0.0 | 1.0 | 0.00 | 0.00 | 0.00 | 73 | 1005.8 |
| 20260505112013 | 34 | 0 | 0.0 | 0.0 | 0.00 | 0.00 | 0.00 | 74 | 1005.7 |
| 20260505111529 | 34 | 0 | 0.0 | 0.0 | 0.00 | 0.00 | 0.00 | 74 | 1005.5 |
| 20260505111017 | 34 | 0 | 0.0 | 0.0 | 0.00 | 0.00 | 0.00 | 74 | 1005.5 |
| 20260505110511 | 34 | 0 | 0.0 | 1.0 | 0.00 | 0.00 | 0.00 | 74 | 1005.6 |
| 20260505102012 | 35 | 0 | 0.0 | 0.0 | 0.00 | 0.00 | 0.00 | 73 | 1005.4 |
| 20260505101532 | 35 | 0 | 0.0 | 0.0 | 0.00 | 0.00 | 0.00 | 74 | 1005.3 |
| 20260505101013 | 35 | 0 | 0.0 | 0.0 | 0.00 | 0.00 | 0.00 | 73 | 1005.5 |
| 20260505100512 | 35 | 0 | 0.0 | 0.0 | 0.00 | 0.00 | 0.00 | 73 | 1005.3 |
| 20260505100030 | 36 | 0 | 0.0 | 0.0 | 0.00 | 0.00 | 0.00 | 73 | 1005.4 |
| 20260505095513 | 36 | 0 | 0.0 | 0.0 | 0.00 | 0.00 | 0.00 | 73 | 1005.5 |
| 20260505095013 | 36 | 0 | 0.0 | 1.0 | 0.00 | 0.00 | 0.00 | 73 | 1005.4 |
| 20260505094531 | 36 | 0 | 0.0 | 1.0 | 0.00 | 0.00 | 0.00 | 73 | 1005.3 |
| 20260505094015 | 36 | 0 | 0.0 | 1.0 | 0.00 | 0.00 | 0.00 | 73 | 1005.2 |
| 20260505093514 | 36 | 0 | 0.0 | 1.0 | 0.00 | 0.00 | 0.00 | 73 | 1005.2 |
| 20260505093031 | 36 | 0 | 0.0 | 1.0 | 0.00 | 0.00 | 0.00 | 72 | 1005.2 |
| 20260505092514 | 37 | 0 | 0.0 | 1.0 | 0.00 | 0.00 | 0.00 | 73 | 1005.1 |
| 20260505092013 | 37 | 0 | 0.0 | 0.0 | 0.00 | 0.00 | 0.00 | 73 | 1005.2 |
| 20260505091531 | 37 | 0 | 0.0 | 1.0 | 0.00 | 0.00 | 0.00 | 72 | 1005.0 |
| 20260505091011 | 37 | 0 | 0.0 | 2.0 | 0.00 | 0.00 | 0.00 | 72 | 1005.1 |
| 20260505090513 | 37 | 288 | 0.0 | 3.0 | 0.00 | 0.00 | 0.00 | 72 | 1004.9 |
| 20260505090033 | 37 | 288 | 1.0 | 3.0 | 0.00 | 0.00 | 0.00 | 72 | 1004.8 |
| 20260505085513 | 37 | 288 | 0.0 | 2.0 | 0.00 | 0.00 | 0.00 | 73 | 1004.8 |
| 20260505085013 | 37 | 288 | 0.0 | 2.0 | 0.00 | 0.00 | 0.00 | 73 | 1004.7 |
| 20260505084543 | 37 | 288 | 0.0 | 2.0 | 0.00 | 0.00 | 0.00 | 73 | 1004.6 |
| 20260505084011 | 37 | 288 | 0.0 | 3.0 | 0.00 | 0.00 | 0.00 | 73 | 1004.6 |
| 20260505083511 | 37 | 288 | 1.0 | 3.0 | 0.00 | 0.00 | 0.00 | 73 | 1004.8 |
| 20260505083033 | 37 | 288 | 0.0 | 2.0 | 0.00 | 0.00 | 0.00 | 71 | 1004.5 |
| 20260505082513 | 37 | 288 | 1.0 | 2.0 | 0.00 | 0.00 | 0.00 | 70 | 1004.4 |
| 20260505082013 | 37 | 288 | 1.0 | 2.0 | 0.00 | 0.00 | 0.00 | 71 | 1004.5 |
| 20260505081533 | 37 | 288 | 0.0 | 3.0 | 0.00 | 0.00 | 0.00 | 72 | 1004.6 |
| 20260505081014 | 37 | 288 | 1.0 | 3.0 | 0.00 | 0.00 | 0.00 | 72 | 1004.5 |
| 20260505080512 | 37 | 288 | 1.0 | 3.0 | 0.00 | 0.00 | 0.00 | 73 | 1004.4 |
| 20260505080033 | 37 | 288 | 1.0 | 3.0 | 0.00 | 0.00 | 0.00 | 73 | 1004.6 |
| 20260505075513 | 37 | 288 | 0.0 | 2.0 | 0.00 | 0.00 | 0.00 | 72 | 1004.3 |
| 20260505075013 | 37 | 288 | 0.0 | 2.0 | 0.00 | 0.00 | 0.00 | 71 | 1004.3 |
| 20260505074531 | 37 | 288 | 1.0 | 3.0 | 0.00 | 0.00 | 0.00 | 75 | 1004.4 |
| 20260505074013 | 36 | 288 | 1.0 | 3.0 | 0.00 | 0.00 | 0.00 | 75 | 1004.5 |
| 20260505073516 | 36 | 288 | 1.0 | 3.0 | 0.00 | 0.00 | 0.00 | 77 | 1004.5 |
| 20260505073033 | 36 | 288 | 1.0 | 2.0 | 0.00 | 0.00 | 0.00 | 76 | 1004.5 |
| 20260505072512 | 36 | 288 | 1.0 | 2.0 | 0.00 | 0.00 | 0.00 | 75 | 1004.5 |
| 20260505072019 | 36 | 288 | 1.0 | 2.0 | 0.00 | 0.00 | 0.00 | 75 | 1004.5 |
| 20260505071533 | 36 | 288 | 1.0 | 3.0 | 0.00 | 0.00 | 0.00 | 76 | 1004.6 |
| 20260505071016 | 36 | 288 | 1.0 | 3.0 | 0.00 | 0.00 | 0.00 | 77 | 1004.4 |
| 20260505070517 | 36 | 288 | 1.0 | 3.0 | 0.00 | 0.00 | 0.00 | 77 | 1004.7 |
| 20260505070042 | 36 | 0 | 0.0 | 0.0 | 0.00 | 0.00 | 0.00 | 69 | 1004.4 |
| 20260505065517 | 36 | 0 | 0.0 | 0.0 | 0.00 | 0.00 | 0.00 | 69 | 1004.6 |
| 20260505065012 | 36 | 0 | 0.0 | 0.0 | 0.00 | 0.00 | 0.00 | 68 | 1004.7 |
| 20260505064531 | 36 | 0 | 0.0 | 0.0 | 0.00 | 0.00 | 0.00 | 68 | 1004.7 |
| 20260505064017 | 36 | 0 | 0.0 | 0.0 | 0.00 | 0.00 | 0.00 | 67 | 1004.6 |
| 20260505063515 | 37 | 0 | 0.0 | 0.0 | 0.00 | 0.00 | 0.00 | 66 | 1004.5 |
| 20260505063034 | 37 | 0 | 0.0 | 0.0 | 0.00 | 0.00 | 0.00 | 67 | 1004.7 |
| 20260505062515 | 37 | 0 | 0.0 | 0.0 | 0.00 | 0.00 | 0.00 | 66 | 1004.5 |
| 20260505062015 | 37 | 0 | 0.0 | 0.0 | 0.00 | 0.00 | 0.00 | 65 | 1004.5 |
| 20260505061534 | 37 | 0 | 0.0 | 0.0 | 0.00 | 0.00 | 0.00 | 64 | 1004.5 |
| 20260505061016 | 38 | 0 | 0.0 | 0.0 | 0.00 | 0.00 | 0.00 | 64 | 1004.5 |
| 20260505060516 | 38 | 0 | 0.0 | 0.0 | 0.00 | 0.00 | 0.00 | 63 | 1004.4 |
| 20260505060036 | 38 | 0 | 0.0 | 0.0 | 0.00 | 0.00 | 0.00 | 64 | 1004.4 |
| 20260505055516 | 38 | 0 | 0.0 | 0.0 | 0.00 | 0.00 | 0.00 | 62 | 1004.4 |
| 20260505055016 | 38 | 0 | 0.0 | 0.0 | 0.00 | 0.00 | 0.00 | 62 | 1004.2 |
| 20260505054535 | 39 | 0 | 0.0 | 0.0 | 0.00 | 0.00 | 0.00 | 62 | 1004.5 |
| 20260505054019 | 39 | 0 | 0.0 | 0.0 | 0.00 | 0.00 | 0.00 | 61 | 1004.3 |
| 20260505053515 | 39 | 0 | 0.0 | 0.0 | 0.00 | 0.00 | 0.00 | 61 | 1004.3 |
| 20260505053054 | 39 | 0 | 0.0 | 0.0 | 0.00 | 0.00 | 0.00 | 59 | 1004.4 |
| 20260505052516 | 40 | 0 | 0.0 | 0.0 | 0.00 | 0.00 | 0.00 | 59 | 1004.2 |
| 20260505052016 | 40 | 0 | 0.0 | 0.0 | 0.00 | 0.00 | 0.00 | 59 | 1004.0 |
| 20260505051534 | 40 | 0 | 0.0 | 0.0 | 0.00 | 0.00 | 0.00 | 58 | 1004.0 |
| 20260505051016 | 40 | 0 | 0.0 | 0.0 | 0.00 | 0.00 | 0.00 | 59 | 1004.0 |
| 20260505050512 | 40 | 0 | 0.0 | 0.0 | 0.00 | 0.00 | 0.00 | 60 | 1004.0 |
| 20260505041541 | 40 | 288 | 0.0 | 2.0 | 0.00 | 0.00 | 0.00 | 59 | 1003.8 |
| 20260505041015 | 40 | 0 | 1.0 | 3.0 | 0.00 | 0.00 | 0.00 | 59 | 1003.6 |
| 20260505040515 | 41 | 288 | 1.0 | 3.0 | 0.00 | 0.00 | 0.00 | 59 | 1003.7 |
| 20260505040032 | 41 | 288 | 1.0 | 3.0 | 0.00 | 0.00 | 0.00 | 58 | 1003.6 |
| 20260505035515 | 41 | 288 | 1.0 | 2.0 | 0.00 | 0.00 | 0.00 | 57 | 1003.7 |
| 20260505035015 | 41 | 288 | 1.0 | 2.0 | 0.00 | 0.00 | 0.00 | 58 | 1003.9 |
| 20260505034533 | 41 | 288 | 1.0 | 3.0 | 0.00 | 0.00 | 0.00 | 55 | 1003.7 |
| 20260505034016 | 42 | 288 | 1.0 | 3.0 | 0.00 | 0.00 | 0.00 | 55 | 1003.4 |
| 20260505033521 | 42 | 288 | 1.0 | 2.0 | 0.00 | 0.00 | 0.00 | 55 | 1003.5 |
| 20260505033040 | 42 | 288 | 0.0 | 2.0 | 0.00 | 0.00 | 0.00 | 55 | 1003.5 |
| 20260505032514 | 42 | 0 | 0.0 | 2.0 | 0.00 | 0.00 | 0.00 | 55 | 1003.5 |
| 20260505032016 | 42 | 288 | 1.0 | 2.0 | 0.00 | 0.00 | 0.00 | 54 | 1003.6 |
| 20260505031534 | 43 | 0 | 0.0 | 2.0 | 0.00 | 0.00 | 0.00 | 54 | 1003.5 |
| 20260505031017 | 43 | 288 | 0.0 | 3.0 | 0.00 | 0.00 | 0.00 | 54 | 1003.5 |
| 20260505030515 | 43 | 288 | 0.0 | 3.0 | 0.00 | 0.00 | 0.00 | 54 | 1003.5 |
| 20260505030032 | 43 | 288 | 1.0 | 2.0 | 0.00 | 0.00 | 0.00 | 54 | 1003.3 |
| 20260505025518 | 43 | 288 | 0.0 | 3.0 | 0.00 | 0.00 | 0.00 | 53 | 1003.2 |
| 20260505025016 | 44 | 288 | 1.0 | 3.0 | 0.00 | 0.00 | 0.00 | 53 | 1003.2 |
| 20260505024533 | 44 | 288 | 0.0 | 3.0 | 0.00 | 0.00 | 0.00 | 52 | 1003.2 |
| 20260505024018 | 44 | 288 | 1.0 | 3.0 | 0.00 | 0.00 | 0.00 | 52 | 1003.2 |
| 20260505023515 | 44 | 288 | 1.0 | 4.0 | 0.00 | 0.00 | 0.00 | 52 | 1003.0 |
| 20260505023031 | 44 | 288 | 1.0 | 4.0 | 0.00 | 0.00 | 0.00 | 51 | 1003.0 |
| 20260505022515 | 45 | 294 | 1.0 | 3.0 | 0.00 | 0.00 | 0.00 | 51 | 1002.9 |
| 20260505022016 | 45 | 308 | 1.0 | 3.0 | 0.00 | 0.00 | 0.00 | 50 | 1002.8 |
| 20260505021532 | 45 | 302 | 1.0 | 4.0 | 0.00 | 0.00 | 0.00 | 50 | 1002.7 |
| 20260505021015 | 45 | 290 | 1.0 | 4.0 | 0.00 | 0.00 | 0.00 | 49 | 1002.7 |
| 20260505020515 | 46 | 299 | 1.0 | 5.0 | 0.00 | 0.00 | 0.00 | 49 | 1002.6 |
| 20260505020034 | 46 | 297 | 2.0 | 5.0 | 0.00 | 0.00 | 0.00 | 48 | 1002.6 |
| 20260505015515 | 46 | 313 | 1.0 | 4.0 | 0.00 | 0.00 | 0.00 | 49 | 1002.4 |
| 20260505015014 | 46 | 317 | 1.0 | 4.0 | 0.00 | 0.00 | 0.00 | 48 | 1002.3 |
| 20260505014535 | 46 | 319 | 1.0 | 6.0 | 0.00 | 0.00 | 0.00 | 48 | 1002.3 |
| 20260505014016 | 46 | 286 | 3.0 | 6.0 | 0.00 | 0.00 | 0.00 | 48 | 1002.1 |
| 20260505013514 | 46 | 303 | 2.0 | 5.0 | 0.00 | 0.00 | 0.00 | 48 | 1002.2 |
| 20260505013033 | 47 | 311 | 2.0 | 4.0 | 0.00 | 0.00 | 0.00 | 48 | 1002.1 |
| 20260505012515 | 47 | 293 | 2.0 | 5.0 | 0.00 | 0.00 | 0.00 | 48 | 1002.1 |
| 20260505012015 | 47 | 291 | 2.0 | 7.0 | 0.00 | 0.00 | 0.00 | 47 | 1002.1 |
| 20260505011553 | 47 | 294 | 3.0 | 7.0 | 0.00 | 0.00 | 0.00 | 46 | 1002.1 |
| 20260505011015 | 48 | 291 | 1.0 | 8.0 | 0.00 | 0.00 | 0.00 | 46 | 1001.9 |
| 20260505010519 | 48 | 315 | 2.0 | 8.0 | 0.00 | 0.00 | 0.00 | 46 | 1001.9 |
| 20260505010033 | 48 | 345 | 3.0 | 7.0 | 0.00 | 0.00 | 0.00 | 45 | 1001.9 |
| 20260505005518 | 48 | 336 | 2.0 | 10.0 | 0.00 | 0.00 | 0.00 | 45 | 1001.7 |
| 20260505005016 | 48 | 318 | 5.0 | 10.0 | 0.00 | 0.00 | 0.00 | 44 | 1001.5 |
| 20260505004530 | 48 | 360 | 3.0 | 10.0 | 0.00 | 0.00 | 0.00 | 44 | 1001.6 |
| 20260505004015 | 48 | 329 | 4.0 | 8.0 | 0.00 | 0.00 | 0.00 | 43 | 1001.6 |
| 20260505003518 | 48 | 331 | 2.0 | 7.0 | 0.00 | 0.00 | 0.00 | 43 | 1001.6 |
| 20260505003033 | 48 | 292 | 4.0 | 7.0 | 0.00 | 0.00 | 0.00 | 42 | 1001.7 |
| 20260505002515 | 48 | 287 | 3.0 | 7.0 | 0.00 | 0.00 | 0.00 | 43 | 1001.4 |
| 20260505002019 | 49 | 319 | 3.0 | 7.0 | 0.00 | 0.00 | 0.00 | 42 | 1001.6 |